Regional Weather Roundup
Issued by NWS Wakefield, VA

Home | Current Version | Previous Version | Graphics & Text | Print | Product List | Glossary On
Versions: 1 2 3 4 5 6 7 8 9 10 11 12 13 14 15 16 17 18 19 20 21 22 23 24 25 26 27
000
ASUS41 KAKQ 191210
RWRAKQ

REGIONAL WEATHER ROUNDUP
NATIONAL WEATHER SERVICE WAKEFIELD VA
800 AM EDT SAT APR 19 2014

Note: "fair" indicates few or no clouds below 12,000 feet with no
significant weather and/or obstructions to visibility. * = Denotes
station may not report precipitation (e.g., rain,snow,etc.),
thunder or fog.

VAZ042-051-052>054-056-191300-
NORTHERN VIRGINIA

CITY           SKY/WX    TMP DP  RH WIND       PRES   REMARKS
WASH NATIONAL  CLOUDY    48  40  73 NE3       30.30R
DULLES         PTSUNNY   43  38  82 VRB5      30.30R
FORT BELVOIR   CLOUDY    43  42  95 CALM      30.30R
QUANTICO       CLOUDY    45  40  82 NW6       30.31R
FREDERICKSBRG* CLOUDY    45  43  93 CALM      30.28S
STAFFORD*      CLOUDY    42  42 100 CALM      30.33R
WARRENTON      CLOUDY    43  43 100 CALM      30.28R
CULPEPER*      CLOUDY    45  45 100 CALM      30.29R
MANASSAS*      NOT AVBL
LEESBURG*      PTSUNNY   43  41  93 N5        30.31R
WINCHESTER     PTSUNNY   45  36  70 CALM      30.29R
$$

VAZ048-049-060>072-079>083-191300-
CENTRAL AND SOUTH CENTRAL VIRGINIA...AND NORTH CENTRAL NORTH CAROLINA

CITY           SKY/WX    TMP DP  RH WIND       PRES   REMARKS
RICHMOND       CLOUDY    47  42  83 NE5       30.26R
CHESTERFIELD*  NOT AVBL
HANOVER        CLOUDY    46  42  86 VRB3      30.28S
TAPPAHANNOCK*  CLOUDY    47  43  86 CALM      30.28R
CHARLOTTSVILLE CLOUDY    43  40  89 CALM      30.26R
ORANGE*        CLOUDY    43  41  93 N3        30.28F
LOUISA*        CLOUDY    46  39  76 CALM      30.26R
FARMVILLE*     CLOUDY    46  45  93 N3        30.23R
SOUTH HILL*    LGT RAIN  46  46 100 NE3       30.27S
ROANOKE RAPIDS DRIZZLE   46  45  93 NE5       30.22R
RALEIGH        LGT RAIN  47  43  86 NE10      30.18S
$$

VAZ088>098-191300-
SOUTHEAST VIRGINIA

CITY           SKY/WX    TMP DP  RH WIND       PRES   REMARKS
NORFOLK        LGT RAIN  47  42  83 NE10      30.25R
VIRGINIA BEACH LGT RAIN  47  43  86 NE10      30.25R
NORFOLK NAVAL  LGT RAIN  48  42  80 NE13      30.26R
WEST POINT*    CLOUDY    49  44  83 N3        30.28R
NEWPORT NEWS   LGT RAIN  50  45  83 NE6       30.25R
LANGLEY AFB    LGT RAIN  48  47  99 NE10      30.26R FOG
FORT EUSTIS    DRIZZLE   48  46  93 NE3       30.24R
WILLIAMSBURG*    N/A     48  46  93 CALM      30.26R
FRANKLIN*      CLOUDY    48 N/A N/A NE6       30.24R
WAKEFIELD      LGT RAIN  47  45  93 NE5       30.24S FOG
$$

VAZ020-022-025-037-045-191300-
WESTERN AND SOUTHWEST VIRGINIA

CITY           SKY/WX    TMP DP  RH WIND       PRES   REMARKS
STAUNTON*      CLOUDY    43  39  88 N3        30.28R
HOT SPRINGS VA CLOUDY    48  32  53 E7        30.28R
LYNCHBURG      CLOUDY    51  41  68 N5        30.25R
DANVILLE       LGT RAIN  47  43  86 NE7       30.22R
MARTINSVILLE   RAIN      47  45  94 NE3       30.23R
ROANOKE        CLOUDY    49  39  68 NE6       30.24S
BLACKSBURG     CLOUDY    46  41  81 E3        30.23S
DUBLIN*        CLOUDY    44  41  89 CALM      30.23R
MARION*        CLOUDY    45  38  78 NE3       30.23R
HILLSVILLE*    CLOUDY    45  37  76 CALM      30.22R
RICHLANDS*     CLOUDY    53  32  44 NE6       30.20R
WISE*          PTSUNNY   50  34  53 NE6       30.21S
ABINGDON*      CLOUDY    53  34  49 E7        30.18R
$$

MDZ021>025-VAZ099-100-191300-
SOUTHERN MARYLAND AND THE DELMARVA PENINSULA

CITY           SKY/WX    TMP DP  RH WIND       PRES   REMARKS
PATUXENT RIVER CLOUDY    46  43  89 CALM      30.29R
BAY BRIDGE APT CLOUDY    46  45  93 CALM      30.31R
LEONARDTOWN    CLOUDY    45  41  87 CALM      30.30R
DOVER          PTSUNNY   42  42 100 SW2       30.25R
GEORGETOWN     CLOUDY    44  40  85 CALM      30.29R
EASTON         CLOUDY    45  45 100 CALM      30.33R
CAMBRIDGE      CLOUDY    45  41  87 CALM      30.29R
SALISBURY      CLOUDY    45  41  86 CALM      30.28R
OCEAN CITY     CLOUDY    46  42  86 CALM      30.29R
WALLOPS ISLAND CLOUDY    48  44  86 E6        30.28S
ACCOMACK*      CLOUDY    45  39  81 E5        30.26S
$$

NCZ012>017-030>032-191300-
EASTERN NORTH CAROLINA

CITY           SKY/WX    TMP DP  RH WIND       PRES   REMARKS
ELIZABETH CITY LGT RAIN  48  44  86 NE13      30.21R
AHOSKIE*       CLOUDY    46  44  92 N7        30.23R
EDENTON*       LGT RAIN  47  45  95 N9        30.20S
CURRITUCK*     DRIZZLE   48  45  89 N12G17    30.23S
KILL DEVIL HLS CLOUDY    47  45  92 N10G20    30.17F
MANTEO         CLOUDY    47  45  92 NE17G24   30.18S
CAPE HATTERAS  LGT RAIN  52  52 100 NE14G28   30.10S FOG
GOLDSBORO      LGT RAIN  48  46  93 N12G21    30.13R
WASHINGTON     CLOUDY    47  43  86 NE13      30.17R
GREENVILLE     LGT RAIN  46  45  93 NE12      30.18S
NEW BERN       HVY RAIN  54  50  87 NE14      30.14R FOG
WILMINGTON     RAIN      54  51  90 NE18      30.03F FOG
$$

VAZ048-191300-
ELSEWHERE

CITY           SKY/WX    TMP DP  RH WIND       PRES   REMARKS
HARRISBURG PA  MOSUNNY   46  38  73 NW10      30.29R
BALTIMORE      CLOUDY    43  38  82 CALM      30.29R
ANNAPOLIS      CLOUDY    46  42  86 NW3       30.30R
ANDREWS AFB    CLOUDY    43  41  93 CALM      30.29R
WILMINGTON DE  MOSUNNY   45  40  82 CALM      30.29R
PHILADELPHIA   PTSUNNY   46  38  73 SW3       30.29R
WILDWOOD NJ*   CLOUDY    43  37  81 CALM      30.30R
ATLANTIC CITY  PTSUNNY   41  39  93 CALM      30.28R
HENDERSON NC   LGT RAIN  45  43  93 NE8       30.22R
GREENSBORO     CLOUDY    46  43  89 NE8       30.16S
ROCKY MOUNT    LGT RAIN  46  44  93 N10       30.19R FOG
FAYETTEVILLE   LGT RAIN  49  47  93 NE20G28   30.07S
CHARLOTTE      LGT RAIN  48  47  96 N10       30.14R FOG
$$

VAZ100-191300-
MARINE

STATION/POSITION TIME  TEMP    WIND        PRES    WAVE   SWELL
                       AIR SEA DIR/SP/G            HT/PER HT/PER
                 (UTC) (F)     (DEG/KT/KT) (MB)    (FT/S) (FT/S)
44066 TX TWR #4  1200   43 44  300/  8/ 10 1024.3R   6/10   5/10
CAPE MAY NJ      1200   45 52  280/  3/  4 1025.2R
LEWES DE         1200   44 47  260/  2/  3 1024.9R
15NM E FENWICK I 1200   44 45              1025.6R   5/11
OCEAN-CITY-INLET 1200   45 48   70/  3/  4 1025.1S
WACHAPREAGUE VA  1200   46 52   40/  9/ 11 1024.5S
THOMAS POINT MD  1200   47 51  320/  3/  4 1026.6R
GOOSES REEF MD   1200   47     210/  2/  2 1026.3R
COVE POINT MD    1200   47        CALM     1025.5R
SOLOMONS ISLAND  1200      52                N/A
BISHOPS HEAD MD  1200   48 53  360/  3/  5 1025.1R
PINEY POINT MD   1200           30/  6/  7   N/A
POTOMAC MD       1200   48      50/  4/  6 1024.7R
CAMBRIDGE MD     1200   45 55   CALM  /  1 1025.3R
LEWISETTA VA     1200   48 53   40/  4/  5 1025.2R
RAPPAHANNOCK LGT 1200           60/  9/ 10 1025.0S
STINGRAY PT      1200   48      40/ 10/ 12 1024.7R
YORK RVR RNG VA  1200   49      50/ 14/ 15 1023.7R
YORKTOWN VA      1200   48 54   40/  9/ 11 1024.2R
JAMESTOWN VA     1200   46      40/  4/  8   N/A
DOMINION TERM VA 1200   48      40/  4/  7 1024.1R
KIPTOPEKE VA     1200      52   70/  8/ 12   N/A
CHES BAY BRIDGE  1200   48 52   30/ 15/ 17 1023.9R
CAPE HENRY VA    1200   47      30/ 15/ 18   N/A
CHESAPEAKE LGHT  1100   45      30/ 20/ 21 1023.9R
WILLOUBY STN VA  1200   48      50/ 13/ 14 1023.3R
S CRANEY ISL VA  1200           10/ 12/ 15 1024.1R
CAPE HENRY BUOY  1200      47                N/A     4/11   2/11
1ST LANDING BUOY 1200      46                N/A     5/11   5/11
64NM E OF VA BCH 1200   48 48   20/ 19/ 23 1022.6R   7/ 9   5/ 9
DUCK PIER NC     1200   47 49   20/ 18/ 20 1021.8S
44100 DUCK FRF   1200      48                N/A     6/11   3/11
44056 DUCK FRF   1200      47                N/A     5/11   2/11
OREGON INLET NC  1200   48 51  360/ 17/ 23 1021.3R
HATTERAS NC      1200   53 57   20/ 21/ 28 1019.0F
CAPE LOOKOUT NC  1100   55      10/ 18/ 22 1017.9R
FRYING PAN SHLS  1200   66 65   60/  4/  4 1014.3R   8/ 6   7/ 6
$$



USA.gov is the U.S. government's official web portal to all federal, state and local government web resources and services.